Regional Weather Roundup
Issued by NWS Grand Forks, ND

Home | Current Version | Previous Version | Text Only | Print | Product List | Glossary Off
Versions: 1 2 3 4 5 6 7 8 9 10 11 12 13 14 15 16 17 18 19 20 21 22 23 24 25 26 27 28 29 30 31 32 33 34 35 36 37 38 39 40 41 42 43 44 45 46 47 48 49 50

000
ASUS43 KFGF 200010
RWRFGF
PRAIRIE TO PINES  WEATHER ROUNDUP
NATIONAL WEATHER SERVICE EASTERN NORTH DAKOTA/GRAND FORKS ND
700 PM CDT TUE SEP 19 2017

 **SATELLITE DATA USED TO AUGMENT SKY COVER AT AUTOMATED STATIONS**
 *****  WEATHER ACROSS EASTERN NORTH DAKOTA  *****

CITY           SKY/WX    TMP DP  RH WIND       PRES   REMARKS
GRAND FORKS    TSTM      67  66  97 E26       29.46F
6HR MIN TEMP:  67; 6HR MAX TEMP:  77; 6HR PCP:  0.23;

GRAND FRKS AFB PTCLDY    67  65  95 E20G28    29.42F THUNDER
DEVILS LAKE    LGT RAIN  65  63  93 SE13      29.44F
6HR MIN TEMP:  64; 6HR MAX TEMP:  66; 6HR PCP:  0.26;

FARGO          TSTM      71  66  84 SE10G18   29.44R
WAHPETON ARPT  MOCLDY    73  63  68 SE20G31   29.48S
$$

 ***** WEATHER ACROSS CENTRAL AND WESTERN NORTH DAKOTA  *****

CITY           SKY/WX    TMP DP  RH WIND       PRES   REMARKS
BISMARCK       FAIR      64  47  53 W17       29.52R
6HR MIN TEMP:  64; 6HR MAX TEMP:  76; 6HR PCP: TRACE;

MINOT          CLOUDY    63  55  75 SW7       29.48R
6HR MIN TEMP:  63; 6HR MAX TEMP:  71; 6HR PCP: TRACE;

JAMESTOWN      FAIR      65  61  87 SE13      29.43S
6HR MIN TEMP:  65; 6HR MAX TEMP:  72; 6HR PCP:  0.03;

MINOT AFB      LGT RAIN  61  54  77 W9        29.46R
GARRISON         N/A     59  55  87 W16       29.52R
WILLISTON      LGT RAIN  58  41  53 W17G24    29.54R
6HR MIN TEMP:  58; 6HR MAX TEMP:  65; 6HR PCP: TRACE;

DICKINSON      LGT RAIN  52  50  93 W14       29.60R
6HR MIN TEMP:  52; 6HR MAX TEMP:  62; 6HR PCP:  0.02;

HETTINGER      CLOUDY    51  48  89 W12       29.63R
6HR MIN TEMP:  51; 6HR MAX TEMP:  61; 6HR PCP:  0.02;

$$

 *****  OTHER AIRPORT OBSERVATIONS IN OUR AREA  *****

CITY           SKY/WX    TMP DP  RH WIND       PRES   REMARKS
WALHALLA       LGT RAIN N/A N/A N/A S10       29.48R
GRAFTON AIRPOR FAIR      68  66  94 SE23G36   29.45F
VALLEY CITY AR RAIN      63  63 100 E6G13     29.48R VSB 3/4
CANDO          MOCLDY    64  64 100 SE13G24   29.44F
CAVALIER APRT  FAIR      68  63  83 SE14G20   29.47S
GWINNER        MOCLDY    72  68  88 SE13G21   29.44F
SHEYENNE NWR     N/A     74  67  79 S20       29.95S
ROLLA          CLOUDY    64  64 100 S14G21    29.41F
 ***** THE ABOVE OBSERVATIONS ARE NON NWS ARE NOT QUALITY
       CONTROLLED AND MAY MIS-REPORT RAIN FOR SNOW...
$$

  *****  WEATHER ACROSS NORTHERN MINNESOTA  *****

CITY           SKY/WX    TMP DP  RH WIND       PRES   REMARKS
FLAG ISLAND    FAIR      66  57  72 SE9       29.65F
WARROAD        FAIR      66  63  88 SE14      29.63F
ROSEAU         FAIR      70  61  73 SE17G23   29.60F
HALLOCK        LGT RAIN  66  64  94 SE26G32   29.47F
THF RVR FALLS  FAIR      68  61  78 E14G22    29.56F
6HR MIN TEMP:  68; 6HR MAX TEMP:  75;

BAUDETTE       FAIR      66  60  81 SE10      29.66F
6HR MIN TEMP:  62; 6HR MAX TEMP:  72;

WASKISH        FAIR      66  61  82 E9        29.65F
CROOKSTON      FAIR      72  63  73 SE10      29.52F THUNDER
STEPHEN NDAWN    N/A     66  63  88 SE21        N/A
GREENBUSH NDAW   N/A     66  61  82 SE10        N/A
$$
  *****  WEATHER ACROSS CENTRAL AND WEST MINNESOTA  *****

CITY           SKY/WX    TMP DP  RH WIND       PRES   REMARKS
FOSSTON        FAIR      66  59  77 SE15G26   29.54F
BEMIDJI        CLOUDY    68  60  75 SE17G25   29.64S
6HR MIN TEMP:  62; 6HR MAX TEMP:  69;

PARK RAPIDS    CLOUDY    71  63  75 E13G24    29.61F
6HR MIN TEMP:  70; 6HR MAX TEMP:  73;

ELBOW LAKE     FAIR      72  65  80 E16G30    29.52F
WADENA         FAIR      70  63  78 SE16G24   29.59F
DETROIT LAKES  FAIR      70  61  73 SE25G33   29.52F
MOORHEAD       TSTM      73  63  68 SE21G28   29.44R
FERGUS FALLS   FAIR      73  64  73 SE17G33   29.49F
MORRIS MN      FAIR      75  66  73 SE21G32   29.53R
STAPLES        FAIR      70  61  73 SE12G20   29.63F
$$
  *****  WEATHER ELSEWHERE ACROSS MINNESOTA  *****

CITY           SKY/WX    TMP DP  RH WIND       PRES   REMARKS
DULUTH         MOCLDY    60  56  86 E13       29.81F
6HR MIN TEMP:  60; 6HR MAX TEMP:  68;

INTRNTL FALLS  FAIR      67  58  72 SE13      29.72F
6HR MIN TEMP:  64; 6HR MAX TEMP:  72;

ELY            FAIR      63  52  67 E7        29.84R
CLOQUET        FAIR      61  54  77 E10       29.79F
WHEATON        FAIR      75  64  69 SE21G28   29.51R
BRAINERD       FAIR      70  62  76 SE8G17    29.67F
6HR MIN TEMP:  66; 6HR MAX TEMP:  74;

HIBBING        FAIR      64  58  80 SE13      29.77F
6HR MIN TEMP:  64; 6HR MAX TEMP:  70;

ALEXANDRIA     FAIR      72  64  76 SE20G28   29.59F
6HR MIN TEMP:  68; 6HR MAX TEMP:  74;

SAINT CLOUD    FAIR      74  63  68 SE14G23   29.66F
6HR MIN TEMP:  74; 6HR MAX TEMP:  78;

MINNEAPOLIS    CLOUDY    76  63  64 SE16G23   29.69F
6HR MIN TEMP:  75; 6HR MAX TEMP:  80;

$$

  *****  WEATHER ACROSS SOUTH DAKOTA  *****

CITY           SKY/WX    TMP DP  RH WIND       PRES   REMARKS
SIOUX FALLS    CLOUDY    81  69  67 S16G24    29.53R
6HR MIN TEMP:  72; 6HR MAX TEMP:  82;

BROOKINGS      FAIR      75  68  78 S22G30    29.54R
WATERTOWN      MOCLDY    74  68  81 SE21G31   29.52R
6HR MIN TEMP:  68; 6HR MAX TEMP:  77;

HURON          MOCLDY    80  68  66 SE16G24   29.43F THUNDER
6HR MIN TEMP:  73; 6HR MAX TEMP:  83;

SISSETON         N/A     76  68  76 S17G23    29.48R
ABERDEEN       FAIR      79  68  69 SE17G28   29.39F THUNDER
6HR MIN TEMP:  74; 6HR MAX TEMP:  82;

MITCHELL       MOCLDY    83  68  60 S20G26    29.46S
PIERRE         FAIR      72  50  45 NW29G38   29.51R
6HR MIN TEMP:  72; 6HR MAX TEMP:  82;

MOBRIDGE       FAIR      67  54  63 NW23G31   29.46R
RAPID CITY     CLOUDY    52  48  87 N15       29.68R
$$

  *****  SOME WEATHER IN NEARBY STATES *****

CITY           SKY/WX    TMP DP  RH WIND       PRES   REMARKS
GLASGOW MT     FAIR      58  33  39 W13       29.56R
6HR MIN TEMP:  56; 6HR MAX TEMP:  60;

GREAT FALLS MT FAIR      48  32  53 SW15G30   29.64S
6HR MIN TEMP:  48; 6HR MAX TEMP:  58;

CHEYENNE WY    FAIR      51  29  42 NW25G39   29.79S
6HR MIN TEMP:  50; 6HR MAX TEMP:  80;

SCOTTSBLUFF NE FAIR      61  34  36 W29G39    29.74R
6HR MIN TEMP:  61; 6HR MAX TEMP:  82; 6HR PCP: TRACE;

OMAHA NE       MOCLDY    85  67  54 SE28G35   29.57F
6HR MIN TEMP:  84; 6HR MAX TEMP:  90;

DES MOINES IA  FAIR      81  68  64 SE21      29.71F
6HR MIN TEMP:  77; 6HR MAX TEMP:  85;

DAVENPORT IA   FAIR      73  65  75 E10       29.86F
6HR MIN TEMP:  73; 6HR MAX TEMP:  79;

CHICAGO IL     FAIR      71  62  73 E8        29.91S
6HR MIN TEMP:  71; 6HR MAX TEMP:  79;

EAU CLAIRE WI  FAIR      74  61  63 SE12      29.79F
6HR MIN TEMP:  74; 6HR MAX TEMP:  79;

LA CROSSE WI   FAIR      77  64  64 SE8       29.79F
6HR MIN TEMP:  77; 6HR MAX TEMP:  83;

$$

  *****  SOME NATIONAL WEATHER *****

CITY           SKY/WX    TMP DP  RH WIND       PRES   REMARKS
LA GUARDIA NY  CLOUDY    71  66  84 N15       29.87F
6HR MIN TEMP:  69; 6HR MAX TEMP:  78; 6HR PCP:  0.19;

RALEIGH NC     FAIR      72  63  73 CALM      29.95R
6HR MIN TEMP:  72; 6HR MAX TEMP:  85;

ATLANTA GA     MOCLDY    81  65  58 W5        29.99R
6HR MIN TEMP:  81; 6HR MAX TEMP:  89;

NEW ORLEANS LA MOCLDY    82  73  74 S3        29.92S
6HR MIN TEMP:  82; 6HR MAX TEMP:  91; 6HR PCP:  0.09;

OKLAHOMA CITY  FAIR      88  67  49 S15G26    29.72S HX  91
6HR MIN TEMP:  88; 6HR MAX TEMP:  94;

ALBUQUERQUE NM FAIR      85  16   7 W15G30    29.90F
6HR MIN TEMP:  75; 6HR MAX TEMP:  88;

SALT LAKE CITY FAIR      63  35  35 CALM      29.90F
6HR MIN TEMP:  54; 6HR MAX TEMP:  63;

LOS ANGELES CA FAIR      72  62  71 W12       29.87S
6HR MIN TEMP:  70; 6HR MAX TEMP:  75;

BOISE ID       CLOUDY


USA.gov is the U.S. government's official web portal to all federal, state and local government web resources and services.